Regional Weather Roundup
Issued by NWS New Orleans/Baton Rouge, LA

Home | Current Version | Previous Version | Graphics & Text | Print | Product List | Glossary On
Versions: 1 2 3 4 5 6 7 8 9 10 11 12 13 14 15 16 17 18 19 20 21 22 23 24 25 26 27 28 29 30 31 32 33 34 35 36 37 38 39 40 41 42 43 44 45 46 47 48 49 50
946
ASUS44 KLIX 020007
RWRLIX
NEW ORLEANS REGIONAL WEATHER ROUNDUP
NATIONAL WEATHER SERVICE NEW ORLEANS LA
700 PM CDT WED APR 01 2015

NOTE: "FAIR" INDICATES FEW OR NO CLOUDS BELOW 12,000 FEET WITH NO
      SIGNIFICANT WEATHER AND/OR OBSTRUCTIONS TO VISIBILITY.
      SKY/WX - SKY CONDITION AND SIGNIFICANT WEATHER.
      TMP - AIR TEMPERATURE.     DP    - DEWPOINT TEMPERATURE.
      RH  - RELATIVE HUMIDITY.   PRES  - PRESSURE.
      HI  - HEAT INDEX.          WCI   - WIND CHILL INDEX.

*  THESE STATIONS ARE NOT NWS OR FAA STATIONS AND ARE NOT UNDER
   NWS QUALITY CONTROL.

LAZ038-040-048-061>063-065>067-069-020100-
SOUTHEAST LOUISIANA

CITY           SKY/WX    TMP DP  RH WIND       PRES   REMARKS
N.O. AUDUBON   NOT AVBL
N.O. INTL ARPT CLOUDY    75  63  66 S10       30.02F
6HR MIN TEMP:  75; 6HR MAX TEMP:  81;

N.O. LAKEFRONT CLOUDY    77  64  64 S14       30.03S
6HR MIN TEMP:  77; 6HR MAX TEMP:  80;

SLIDELL        CLOUDY    76  65  68 S7        30.03S
6HR MIN TEMP:  76; 6HR MAX TEMP:  82;

BATON ROUGE    CLOUDY    75  61  61 S13       30.01R
6HR MIN TEMP:  75; 6HR MAX TEMP:  83;

BOOTHVILLE     CLOUDY    73  68  84 SE5       30.05S
6HR MIN TEMP:  73; 6HR MAX TEMP:  79;

BELLE CHASSE   CLOUDY    73  65  75 S8        30.03S
6HR MIN TEMP:  73; 6HR MAX TEMP:  80;

BOGALUSA*        N/A     78  61  55 S8        30.03S
6HR MIN TEMP:  78; 6HR MAX TEMP:  84;

GALLIANO*      CLOUDY    75  67  75 CALM      30.04S
6HR MIN TEMP:  75; 6HR MAX TEMP:  82;

NEW ROADS*       N/A     75  62  63 S9G16     30.00S
6HR MIN TEMP:  75; 6HR MAX TEMP:  82;

GONZALES*        N/A     76  63  64 S6        30.02R
6HR MIN TEMP:  76; 6HR MAX TEMP:  82;

HAMMOND*       CLOUDY    75  63  64 S6        30.03S
HOUMA*         PTCLDY    73  66  78 S7        30.02F
PORT FOURCHON* CLEAR     75  70  83 SE8       30.07F

$$

MSZ070-080>082-020100-
SOUTHERN MISSISSIPPI

CITY           SKY/WX    TMP DP  RH WIND       PRES   REMARKS
MCCOMB         CLOUDY    75  61  61 S7        30.01R
6HR MIN TEMP:  75; 6HR MAX TEMP:  81;

GULFPORT       CLOUDY    73  67  81 S9        30.04F
6HR MIN TEMP:  73; 6HR MAX TEMP:  78;

BILOXI         CLOUDY    72  68  86 S9        30.04F
6HR MIN TEMP:  72; 6HR MAX TEMP:  77;

PASCAGOULA     CLOUDY    72  64  76 S6        30.06R
6HR MIN TEMP:  72; 6HR MAX TEMP:  80;

STENNIS ARPT*  PTCLDY    72  64  78 MISG      30.04S

$$

COASTAL OBSERVATIONS
LAKE AND NEARSHORE STATIONS

STATION/POSITION TIME  TEMP    WIND        PRES    WAVE
                       AIR SEA DIR/SP/G            HT/PER
                 (UTC) (F)     (DEG/KT/KT) (MB)    (FT/S)
PASCAGOULA       2300   73     170/  9/ 11 1017.4
WAVELAND YACHT   2300   72 71  160/ 15/ 16 1017.2
GRAND ISLE       2300   74 71  150/  3/  6 1017.3
SOUTHWEST PASS   2300   73 56  170/  6/  7 1018.0
NEW CANAL        2300   77     200/  8/ 16 1017.2
SHELL BEACH      2300   74 73  160/ 10/ 12 1017.3

OFFSHORE STATIONS

STATION/POSITION TIME  TEMP    WIND        PRES    WAVE
                       AIR SEA DIR/SP/G            HT/PER
                 (UTC) (F)     (DEG/KT/KT) (MB)    (FT/S)
64 S DAUPHIN ISL 2350   73 74  190/ 10/ 12 1018.7    2/ 4

$$




USA.gov is the U.S. government's official web portal to all federal, state and local government web resources and services.